Time,TemperatureF,DewpointF,PressureIn,WindDirection,WindDirectionDegrees,WindSpeedMPH,WindSpeedGustMPH,Humidity,HourlyPrecipIn,Conditions,Clouds,dailyrainin,SolarRadiationWatts/m^2,SoftwareType,DateUTC
2013-03-06 00:22:00,26.0,7.0,-100.00,West,279,3.0,5.0,44,0.00,,,0.00,0.000000,,2013-03-06 07:22:00,
2013-03-06 00:31:00,26.0,7.0,-100.00,West,279,3.0,5.0,44,0.00,,,0.00,0.000000,,2013-03-06 07:31:00,
2013-03-06 00:42:00,26.0,7.0,-100.00,West,279,3.0,5.0,44,0.00,,,0.00,0.000000,,2013-03-06 07:42:00,
2013-03-06 00:50:00,25.0,8.0,-100.00,West,268,2.0,6.0,47,0.00,,,0.00,0.000000,,2013-03-06 07:50:00,
2013-03-06 01:11:00,25.0,8.0,-100.00,West,268,2.0,6.0,47,0.00,,,0.00,0.000000,,2013-03-06 08:11:00,
2013-03-06 01:21:00,25.0,8.0,-100.00,West,268,2.0,6.0,47,0.00,,,0.00,0.000000,,2013-03-06 08:21:00,
2013-03-06 01:31:00,25.0,8.0,-100.00,West,268,2.0,6.0,47,0.00,,,0.00,0.000000,,2013-03-06 08:31:00,
2013-03-06 01:42:00,25.0,8.0,-100.00,West,268,2.0,6.0,47,0.00,,,0.00,0.000000,,2013-03-06 08:42:00,
2013-03-06 01:50:00,27.0,8.0,-100.00,West,264,5.0,7.0,44,0.00,,,0.00,0.000000,,2013-03-06 08:50:00,
2013-03-06 02:21:00,27.0,8.0,-100.00,West,264,5.0,7.0,44,0.00,,,0.00,0.000000,,2013-03-06 09:21:00,
2013-03-06 02:31:00,27.0,8.0,-100.00,West,264,5.0,7.0,44,0.00,,,0.00,0.000000,,2013-03-06 09:31:00,
2013-03-06 02:41:00,27.0,8.0,-100.00,West,264,5.0,7.0,44,0.00,,,0.00,0.000000,,2013-03-06 09:41:00,
2013-03-06 02:50:00,25.0,8.0,-100.00,West,260,5.0,7.0,47,0.00,,,0.00,0.000000,,2013-03-06 09:50:00,
2013-03-06 03:11:00,25.0,8.0,-100.00,West,260,5.0,7.0,47,0.00,,,0.00,0.000000,,2013-03-06 10:11:00,
2013-03-06 03:21:00,25.0,8.0,-100.00,West,260,5.0,7.0,47,0.00,,,0.00,0.000000,,2013-03-06 10:21:00,
2013-03-06 03:31:00,25.0,8.0,-100.00,West,260,5.0,7.0,47,0.00,,,0.00,0.000000,,2013-03-06 10:31:00,
2013-03-06 03:41:00,25.0,8.0,-100.00,West,260,5.0,7.0,47,0.00,,,0.00,0.000000,,2013-03-06 10:41:00,
2013-03-06 03:50:00,25.0,7.0,-100.00,West,281,2.0,7.0,46,0.00,,,0.00,0.000000,,2013-03-06 10:50:00,
2013-03-06 04:11:00,25.0,7.0,-100.00,West,281,2.0,7.0,46,0.00,,,0.00,0.000000,,2013-03-06 11:11:00,
2013-03-06 04:22:00,25.0,7.0,-100.00,West,281,2.0,7.0,46,0.00,,,0.00,0.000000,,2013-03-06 11:22:00,
2013-03-06 04:32:00,25.0,7.0,-100.00,West,281,2.0,7.0,46,0.00,,,0.00,0.000000,,2013-03-06 11:32:00,
2013-03-06 04:42:00,25.0,7.0,-100.00,West,281,2.0,7.0,46,0.00,,,0.00,0.000000,,2013-03-06 11:42:00,
2013-03-06 04:50:00,27.0,9.0,-100.00,WSW,237,1.0,10.0,45,0.00,,,0.00,0.000000,,2013-03-06 11:50:00,
2013-03-06 05:11:00,27.0,9.0,-100.00,WSW,237,1.0,10.0,45,0.00,,,0.00,0.000000,,2013-03-06 12:11:00,
2013-03-06 05:21:00,27.0,9.0,-100.00,WSW,237,1.0,10.0,45,0.00,,,0.00,0.000000,,2013-03-06 12:21:00,
2013-03-06 05:32:00,27.0,9.0,-100.00,WSW,237,1.0,10.0,45,0.00,,,0.00,0.000000,,2013-03-06 12:32:00,
2013-03-06 05:42:00,27.0,9.0,-100.00,WSW,237,1.0,10.0,45,0.00,,,0.00,0.000000,,2013-03-06 12:42:00,
2013-03-06 05:50:00,28.0,10.0,-100.00,WSW,254,6.0,10.0,47,0.00,,,0.00,0.000000,,2013-03-06 12:50:00,
2013-03-06 06:11:00,28.0,10.0,-100.00,WSW,254,6.0,10.0,47,0.00,,,0.00,0.000000,,2013-03-06 13:11:00,
2013-03-06 06:21:00,28.0,10.0,-100.00,WSW,254,6.0,10.0,47,0.00,,,0.00,0.000000,,2013-03-06 13:21:00,
2013-03-06 06:32:00,28.0,10.0,-100.00,WSW,254,6.0,10.0,47,0.00,,,0.00,0.000000,,2013-03-06 13:32:00,
2013-03-06 06:42:00,28.0,10.0,-100.00,WSW,254,6.0,10.0,47,0.00,,,0.00,0.000000,,2013-03-06 13:42:00,
2013-03-06 06:50:00,28.0,10.0,-100.00,WSW,253,6.0,11.0,47,0.00,,,-99.99,2.000000,,2013-03-06 13:50:00,
2013-03-06 07:21:00,28.0,10.0,-100.00,WSW,253,6.0,11.0,47,0.00,,,-99.99,2.000000,,2013-03-06 14:21:00,
2013-03-06 07:32:00,28.0,10.0,-100.00,WSW,253,6.0,11.0,47,0.00,,,-99.99,2.000000,,2013-03-06 14:32:00,
2013-03-06 07:41:00,28.0,10.0,-100.00,WSW,253,6.0,11.0,47,0.00,,,-99.99,2.000000,,2013-03-06 14:41:00,
2013-03-06 07:50:00,38.0,14.0,-100.00,WSW,242,4.0,11.0,37,0.00,,,0.00,96.000000,,2013-03-06 14:50:00,
2013-03-06 08:21:00,38.0,14.0,-100.00,WSW,242,4.0,11.0,37,0.00,,,0.00,96.000000,,2013-03-06 15:21:00,
2013-03-06 08:32:00,38.0,14.0,-100.00,WSW,242,4.0,11.0,37,0.00,,,0.00,96.000000,,2013-03-06 15:32:00,
2013-03-06 08:42:00,38.0,14.0,-100.00,WSW,242,4.0,11.0,37,0.00,,,0.00,96.000000,,2013-03-06 15:42:00,
2013-03-06 08:50:00,44.0,17.0,-100.00,SW,217,9.0,20.0,33,0.00,,,0.00,335.000000,,2013-03-06 15:50:00,
2013-03-06 09:21:00,44.0,17.0,-100.00,SW,217,9.0,20.0,33,0.00,,,0.00,335.000000,,2013-03-06 16:21:00,
2013-03-06 09:32:00,44.0,17.0,-100.00,SW,217,9.0,20.0,33,0.00,,,0.00,335.000000,,2013-03-06 16:32:00,
2013-03-06 09:41:00,44.0,17.0,-100.00,SW,217,9.0,20.0,33,0.00,,,0.00,335.000000,,2013-03-06 16:41:00,
2013-03-06 09:50:00,45.0,18.0,-100.00,SW,223,13.0,28.0,34,0.00,,,0.00,558.000000,,2013-03-06 16:50:00,
2013-03-06 10:11:00,45.0,18.0,-100.00,SW,223,13.0,28.0,34,0.00,,,0.00,558.000000,,2013-03-06 17:11:00,
2013-03-06 10:21:00,45.0,18.0,-100.00,SW,223,13.0,28.0,34,0.00,,,0.00,558.000000,,2013-03-06 17:21:00,
2013-03-06 10:32:00,45.0,18.0,-100.00,SW,223,13.0,28.0,34,0.00,,,0.00,558.000000,,2013-03-06 17:32:00,
2013-03-06 10:41:00,45.0,18.0,-100.00,SW,223,13.0,28.0,34,0.00,,,0.00,558.000000,,2013-03-06 17:41:00,
2013-03-06 10:50:00,47.0,21.0,-100.00,SW,218,11.0,29.0,35,0.00,,,0.00,744.000000,,2013-03-06 17:50:00,
2013-03-06 11:28:00,47.0,21.0,-100.00,SW,218,11.0,29.0,35,0.00,,,0.00,744.000000,,2013-03-06 18:28:00,
2013-03-06 11:42:00,47.0,21.0,-100.00,SW,218,11.0,29.0,35,0.00,,,0.00,744.000000,,2013-03-06 18:42:00,
2013-03-06 11:50:00,47.0,19.0,-100.00,SSW,200,12.0,28.0,33,0.00,,,0.00,879.000000,,2013-03-06 18:50:00,
2013-03-06 12:21:00,47.0,19.0,-100.00,SSW,200,12.0,28.0,33,0.00,,,0.00,879.000000,,2013-03-06 19:21:00,
2013-03-06 12:32:00,47.0,19.0,-100.00,SSW,200,12.0,28.0,33,0.00,,,0.00,879.000000,,2013-03-06 19:32:00,
2013-03-06 12:42:00,47.0,19.0,-100.00,SSW,200,12.0,28.0,33,0.00,,,0.00,879.000000,,2013-03-06 19:42:00,
2013-03-06 12:50:00,47.0,19.0,-100.00,SSW,194,13.0,31.0,33,0.00,,,0.00,932.000000,,2013-03-06 19:50:00,
2013-03-06 13:22:00,47.0,19.0,-100.00,SSW,194,13.0,31.0,33,0.00,,,0.00,932.000000,,2013-03-06 20:22:00,
2013-03-06 13:32:00,47.0,19.0,-100.00,SSW,194,13.0,31.0,33,0.00,,,0.00,932.000000,,2013-03-06 20:32:00,
2013-03-06 13:42:00,47.0,19.0,-100.00,SSW,194,13.0,31.0,33,0.00,,,0.00,932.000000,,2013-03-06 20:42:00,
2013-03-06 13:50:00,49.0,18.0,-100.00,SSW,204,10.0,27.0,29,0.00,,,0.00,914.000000,,2013-03-06 20:50:00,
2013-03-06 14:22:00,49.0,18.0,-100.00,SSW,204,10.0,27.0,29,0.00,,,0.00,914.000000,,2013-03-06 21:22:00,
2013-03-06 14:32:00,49.0,18.0,-100.00,SSW,204,10.0,27.0,29,0.00,,,0.00,914.000000,,2013-03-06 21:32:00,
2013-03-06 14:42:00,49.0,18.0,-100.00,SSW,204,10.0,27.0,29,0.00,,,0.00,914.000000,,2013-03-06 21:42:00,
2013-03-06 14:50:00,50.0,18.0,-100.00,SW,224,9.0,24.0,28,0.00,,,0.00,825.000000,,2013-03-06 21:50:00,
2013-03-06 15:21:00,50.0,18.0,-100.00,SW,224,9.0,24.0,28,0.00,,,0.00,825.000000,,2013-03-06 22:21:00,
2013-03-06 15:32:00,50.0,18.0,-100.00,SW,224,9.0,24.0,28,0.00,,,0.00,825.000000,,2013-03-06 22:32:00,
2013-03-06 15:41:00,50.0,18.0,-100.00,SW,224,9.0,24.0,28,0.00,,,0.00,825.000000,,2013-03-06 22:41:00,
2013-03-06 15:50:00,49.0,16.0,-100.00,SW,219,9.0,25.0,27,0.00,,,0.00,659.000000,,2013-03-06 22:50:00,
2013-03-06 16:21:00,49.0,16.0,-100.00,SW,219,9.0,25.0,27,0.00,,,0.00,659.000000,,2013-03-06 23:21:00,
2013-03-06 16:31:00,49.0,16.0,-100.00,SW,219,9.0,25.0,27,0.00,,,0.00,659.000000,,2013-03-06 23:31:00,
2013-03-06 16:41:00,49.0,16.0,-100.00,SW,219,9.0,25.0,27,0.00,,,0.00,659.000000,,2013-03-06 23:41:00,
2013-03-06 16:50:00,47.0,16.0,-100.00,SSW,197,9.0,20.0,29,0.00,,,0.00,380.000000,,2013-03-06 23:50:00,
2013-03-06 17:21:00,47.0,16.0,-100.00,SSW,197,9.0,20.0,29,0.00,,,0.00,380.000000,,2013-03-07 00:21:00,
2013-03-06 17:32:00,47.0,16.0,-100.00,SSW,197,9.0,20.0,29,0.00,,,0.00,380.000000,,2013-03-07 00:32:00,
2013-03-06 17:41:00,47.0,16.0,-100.00,SSW,197,9.0,20.0,29,0.00,,,0.00,380.000000,,2013-03-07 00:41:00,
2013-03-06 17:50:00,43.0,15.0,-100.00,SW,215,8.0,23.0,32,0.00,,,0.00,95.000000,,2013-03-07 00:50:00,
2013-03-06 18:11:00,43.0,15.0,-100.00,SW,215,8.0,23.0,32,0.00,,,0.00,95.000000,,2013-03-07 01:11:00,
2013-03-06 18:21:00,43.0,15.0,-100.00,SW,215,8.0,23.0,32,0.00,,,0.00,95.000000,,2013-03-07 01:21:00,
2013-03-06 18:31:00,43.0,15.0,-100.00,SW,215,8.0,23.0,32,0.00,,,0.00,95.000000,,2013-03-07 01:31:00,
2013-03-06 18:41:00,43.0,15.0,-100.00,SW,215,8.0,23.0,32,0.00,,,0.00,95.000000,,2013-03-07 01:41:00,
2013-03-06 18:50:00,42.0,15.0,-100.00,SSW,199,3.0,12.0,33,0.00,,,0.00,4.000000,,2013-03-07 01:50:00,
2013-03-06 19:11:00,42.0,15.0,-100.00,SSW,199,3.0,12.0,33,0.00,,,0.00,4.000000,,2013-03-07 02:11:00,
2013-03-06 19:21:00,42.0,15.0,-100.00,SSW,199,3.0,12.0,33,0.00,,,0.00,4.000000,,2013-03-07 02:21:00,
2013-03-06 19:31:00,42.0,15.0,-100.00,SSW,199,3.0,12.0,33,0.00,,,0.00,4.000000,,2013-03-07 02:31:00,
2013-03-06 19:41:00,42.0,15.0,-100.00,SSW,199,3.0,12.0,33,0.00,,,0.00,4.000000,,2013-03-07 02:41:00,
2013-03-06 19:50:00,39.0,16.0,-100.00,WSW,241,2.0,7.0,38,0.00,,,0.00,0.000000,,2013-03-07 02:50:00,
2013-03-06 20:11:00,39.0,16.0,-100.00,WSW,241,2.0,7.0,38,0.00,,,0.00,0.000000,,2013-03-07 03:11:00,
2013-03-06 20:21:00,39.0,16.0,-100.00,WSW,241,2.0,7.0,38,0.00,,,0.00,0.000000,,2013-03-07 03:21:00,
2013-03-06 20:31:00,39.0,16.0,-100.00,WSW,241,2.0,7.0,38,0.00,,,0.00,0.000000,,2013-03-07 03:31:00,
2013-03-06 20:41:00,39.0,16.0,-100.00,WSW,241,2.0,7.0,38,0.00,,,0.00,0.000000,,2013-03-07 03:41:00,
2013-03-06 20:50:00,40.0,15.0,-100.00,WSW,244,2.0,8.0,36,0.00,,,0.00,0.000000,,2013-03-07 03:50:00,
2013-03-06 21:11:00,40.0,15.0,-100.00,WSW,244,2.0,8.0,36,0.00,,,0.00,0.000000,,2013-03-07 04:11:00,
2013-03-06 21:21:00,40.0,15.0,-100.00,WSW,244,2.0,8.0,36,0.00,,,0.00,0.000000,,2013-03-07 04:21:00,
2013-03-06 21:31:00,40.0,15.0,-100.00,WSW,244,2.0,8.0,36,0.00,,,0.00,0.000000,,2013-03-07 04:31:00,
2013-03-06 21:41:00,40.0,15.0,-100.00,WSW,244,2.0,8.0,36,0.00,,,0.00,0.000000,,2013-03-07 04:41:00,
2013-03-06 21:50:00,40.0,15.0,-100.00,SSE,168,2.0,11.0,36,0.00,,,0.00,0.000000,,2013-03-07 04:50:00,
2013-03-06 22:12:00,40.0,15.0,-100.00,SSE,168,2.0,11.0,36,0.00,,,0.00,0.000000,,2013-03-07 05:12:00,
2013-03-06 22:22:00,40.0,15.0,-100.00,SSE,168,2.0,11.0,36,0.00,,,0.00,0.000000,,2013-03-07 05:22:00,
2013-03-06 22:32:00,40.0,15.0,-100.00,SSE,168,2.0,11.0,36,0.00,,,0.00,0.000000,,2013-03-07 05:32:00,
2013-03-06 22:41:00,40.0,15.0,-100.00,SSE,168,2.0,11.0,36,0.00,,,0.00,0.000000,,2013-03-07 05:41:00,
2013-03-06 22:50:00,40.0,15.0,-100.00,SSW,197,3.0,12.0,36,0.00,,,0.00,0.000000,,2013-03-07 05:50:00,
2013-03-06 23:11:00,40.0,15.0,-100.00,SSW,197,3.0,12.0,36,0.00,,,0.00,0.000000,,2013-03-07 06:11:00,
2013-03-06 23:21:00,40.0,15.0,-100.00,SSW,197,3.0,12.0,36,0.00,,,0.00,0.000000,,2013-03-07 06:21:00,
2013-03-06 23:31:00,40.0,15.0,-100.00,SSW,197,3.0,12.0,36,0.00,,,0.00,0.000000,,2013-03-07 06:31:00,
2013-03-06 23:41:00,40.0,15.0,-100.00,SSW,197,3.0,12.0,36,0.00,,,0.00,0.000000,,2013-03-07 06:41:00,
2013-03-06 23:50:00,41.0,16.0,-100.00,SW,218,7.0,14.0,36,0.00,,,0.00,0.000000,,2013-03-07 06:50:00,